Location: Unspecified
(0.0000°N, 0.0000°E)
Time: 23:51:08
(UTC+01:00)

deb Ariane - Visible Passes

Search period start: 31 October 2014 00:00
Search period end: 10 November 2014 00:00
Orbit: 139 x 13542 km, 7.5° (Epoch: 31 October)

Date Brightness Start Highest point End Pass type
(mag) Time Alt. Az. Time Alt. Az. Time Alt. Az.
31 Oct 9.3 03:12:09 57° W 04:09:42 85° NNW 05:41:27 10° E visible
31 Oct 5.1 18:59:03 10° WSW 19:02:16 41° SSE 19:13:38 10° ESE visible
31 Oct 7.7 23:23:06 10° WSW 00:12:59 53° E 01:56:02 10° E visible
01 Nov 9.5 04:24:51 32° W 06:13:48 80° N 07:01:55 10° E visible
01 Nov 5.9 20:12:28 10° WSW 20:17:48 55° SSE 20:30:12 24° ESE visible
02 Nov 8.4 00:37:56 10° W 01:22:33 79° E 03:29:57 10° E visible
02 Nov 9.3 05:33:47 12° W 07:49:52 76° N 08:16:15 10° E visible
02 Nov 6.6 21:22:07 10° WSW 21:30:28 67° SSE 22:31:41 10° E visible
03 Nov 9.0 02:28:17 75° W 02:49:30 88° NNW 04:49:25 10° E visible
03 Nov 7.2 22:28:02 10° WSW 23:20:03 34° E 00:26:32 10° E visible
04 Nov 9.3 03:30:05 51° W 04:37:24 83° N 05:59:52 10° E visible
04 Nov 5.2 19:08:49 10° WSW 19:12:07 40° SSE 19:23:50 10° E visible
04 Nov 7.7 23:30:10 10° WSW 00:18:29 53° E 02:00:02 10° E visible
05 Nov 9.5 04:27:50 32° W 06:14:17 79° N 07:03:30 10° E visible
05 Nov 5.7 20:06:18 10° WSW 20:11:13 53° SSE 20:23:04 22° E visible
06 Nov 8.3 00:28:29 10° W 01:12:45 74° E 03:14:08 10° E visible
06 Nov 9.4 05:21:24 16° W 07:30:31 77° N 08:01:16 10° E visible
06 Nov 6.3 20:59:30 10° WSW 21:06:21 64° SSE 21:13:46 43° ESE visible
07 Nov 8.8 02:02:45 86° WNW 02:06:58 88° N 04:16:12 10° E visible
07 Nov 9.0 06:21:49 10° W 08:32:53 76° N 08:53:38 10° E visible
07 Nov 6.8 21:48:15 10° WSW 21:57:31 72° SSE 23:08:54 10° E visible
08 Nov 9.1 02:48:19 68° W 03:18:24 84° N 05:09:40 10° E visible
08 Nov 7.1 22:32:26 10° WSW 23:22:48 33° E 00:23:48 10° E visible
09 Nov 9.2 03:29:19 52° W 04:29:11 81° N 05:56:03 10° E visible
09 Nov 5.0 18:54:55 10° SW 18:57:41 33° SSE 19:06:11 10° ESE visible
09 Nov 7.4 23:11:51 10° WSW 23:59:51 45° E 23:18:50 50° WSW visible
